EW7744 Weather Reports


time (UTC)temp
C
wind
direction
speed
KPH
gust
KPH
rain 1hr
cm
rain 24hr
cm
rain mn
cm
humidity
%
barometer
mb
20260502151342 15 261 14.5 24.1 0.00 0.00 0.00 39 1013.4
20260502150834 15 261 12.9 20.9 0.00 0.00 0.00 39 1013.4
20260502150323 15 261 12.9 22.5 0.00 0.00 0.00 39 1013.4
20260502140113 12 261 14.5 22.5 0.00 0.00 0.00 43 1013.6
20260502130417 8 0 6.4 12.9 0.00 0.00 0.00 56 1012.8
20260502123316 7 0 4.8 9.7 0.00 0.00 0.00 56 1012.9
20260502122807 7 0 6.4 14.5 0.00 0.00 0.00 56 1012.9
20260502122256 7 0 8.0 14.5 0.00 0.00 0.00 56 1012.9
20260502121747 6 259 8.0 14.5 0.00 0.00 0.00 57 1012.9
20260502121243 6 260 6.4 14.5 0.00 0.00 0.00 57 1012.9
20260502120735 6 259 6.4 12.9 0.00 0.00 0.00 57 1012.9
20260502120224 6 259 8.0 14.5 0.00 0.00 0.00 57 1012.9
20260502115726 6 259 9.7 16.1 0.00 0.00 0.00 57 1012.9
20260502115216 6 0 11.3 20.9 0.00 0.00 0.00 57 1013.1
20260502114705 6 259 12.9 22.5 0.00 0.00 0.00 57 1013.1
20260502114154 6 259 12.9 22.5 0.00 0.00 0.00 57 1013.1
20260502113645 6 0 12.9 19.3 0.00 0.00 0.00 57 1013.2
20260502113636 6 260 11.3 19.3 0.00 0.00 0.00 57 1013.3
20260502113109 6 0 11.3 16.1 0.00 0.00 0.00 56 1013.5
20260502112723 6 259 11.3 16.1 0.00 0.00 0.00 56 1013.5
20260502112713 6 259 11.3 17.7 0.00 0.00 0.00 56 1013.4
20260502111054 6 0 11.3 19.3 0.00 0.00 0.00 55 1013.5
20260502110547 6 259 11.3 17.7 0.00 0.00 0.00 55 1013.6
20260502110530 7 259 9.7 14.5 0.00 0.00 0.00 54 1013.7
20260502110134 6 259 11.3 16.1 0.00 0.00 0.00 54 1013.7
20260502105017 7 0 8.0 12.9 0.00 0.00 0.00 53 1013.9
20260502104507 7 0 8.0 12.9 0.00 0.00 0.00 53 1013.9
20260502103956 7 0 8.0 14.5 0.00 0.00 0.00 53 1013.9
20260502103447 7 0 8.0 14.5 0.00 0.00 0.00 53 1013.9
20260502102928 7 0 8.0 19.3 0.00 0.00 0.00 53 1013.8
20260502102425 7 260 9.7 19.3 0.00 0.00 0.00 52 1013.9
20260502101924 7 260 12.9 22.5 0.00 0.00 0.00 52 1013.9
20260502101426 7 260 12.9 22.5 0.00 0.00 0.00 52 1013.8
20260502101421 7 260 12.9 19.3 0.00 0.00 0.00 52 1013.8
20260502100420 7 260 11.3 19.3 0.00 0.00 0.00 52 1013.8
20260502091224 8 259 16.1 25.7 0.00 0.00 0.00 50 1014.5
20260502090712 8 0 17.7 33.8 0.00 0.00 0.00 49 1014.5
20260502090704 8 259 19.3 33.8 0.00 0.00 0.00 49 1014.3
20260502071351 9 260 19.3 33.8 0.00 0.00 0.00 44 1015.3
20260502070847 9 260 19.3 32.2 0.00 0.00 0.00 44 1015.3
20260502070337 9 260 19.3 32.2 0.00 0.00 0.00 43 1015.5
20260502065833 9 260 19.3 33.8 0.00 0.00 0.00 43 1015.5
20260502065330 9 260 19.3 38.6 0.00 0.00 0.00 43 1015.6
20260502064828 9 260 19.3 38.6 0.00 0.00 0.00 43 1015.6
20260502064323 9 260 17.7 33.8 0.00 0.00 0.00 43 1015.7
20260502064317 9 260 16.1 29.0 0.00 0.00 0.00 44 1015.9
20260502063309 9 260 16.1 29.0 0.00 0.00 0.00 44 1015.9
20260502062801 9 260 14.5 22.5 0.00 0.00 0.00 44 1015.9
20260502062246 9 260 14.5 25.7 0.00 0.00 0.00 44 1015.9
20260502061743 9 260 14.5 25.7 0.00 0.00 0.00 43 1016.0
20260502061239 9 260 16.1 22.5 0.00 0.00 0.00 43 1016.0
20260502061233 9 260 14.5 22.5 0.00 0.00 0.00 42 1016.1
20260502060230 9 260 12.9 19.3 0.00 0.00 0.00 42 1016.1
20260502055722 10 260 12.9 19.3 0.00 0.00 0.00 42 1016.2
20260502055205 10 260 11.3 19.3 0.00 0.00 0.00 42 1016.2
20260502054654 10 260 11.3 19.3 0.00 0.00 0.00 41 1016.2
20260502054145 10 260 11.3 19.3 0.00 0.00 0.00 41 1016.3
20260502053634 9 260 9.7 16.1 0.00 0.00 0.00 42 1016.3
20260502053626 9 260 8.0 14.5 0.00 0.00 0.00 42 1016.3
20260502052615 9 260 9.7 16.1 0.00 0.00 0.00 42 1016.3
20260502052056 9 260 9.7 16.1 0.00 0.00 0.00 43 1016.4
20260502051546 9 260 8.0 12.9 0.00 0.00 0.00 43 1016.3
20260502051037 9 260 6.4 12.9 0.00 0.00 0.00 43 1016.4
20260502050526 9 260 4.8 8.0 0.00 0.00 0.00 42 1016.4
20260502050016 9 260 3.2 9.7 0.00 0.00 0.00 42 1016.6
20260502050006 9 260 1.6 9.7 0.00 0.00 0.00 42 1016.6
20260502044954 9 260 1.6 6.4 0.00 0.00 0.00 41 1016.6
20260502044946 10 0 3.2 6.4 0.00 0.00 0.00 41 1016.7
20260502043936 10 259 4.8 8.0 0.00 0.00 0.00 41 1016.7
20260502043929 10 260 4.8 8.0 0.00 0.00 0.00 41 1016.7
20260502042922 10 260 6.4 11.3 0.00 0.00 0.00 41 1016.7
20260502042412 10 260 4.8 9.7 0.00 0.00 0.00 41 1016.7
20260502041902 10 260 4.8 11.3 0.00 0.00 0.00 40 1016.7
20260502041354 10 260 6.4 11.3 0.00 0.00 0.00 41 1016.8
20260502040840 10 260 6.4 12.9 0.00 0.00 0.00 40 1016.7
20260502040337 10 260 6.4 12.9 0.00 0.00 0.00 40 1016.7
20260502035831 10 260 4.8 9.7 0.00 0.00 0.00 40 1016.7
20260502035321 10 0 3.2 8.0 0.00 0.00 0.00 40 1016.7
20260502034810 10 260 1.6 8.0 0.00 0.00 0.00 39 1016.8
20260502034302 10 260 3.2 8.0 0.00 0.00 0.00 38 1016.8
20260502033753 10 260 3.2 8.0 0.00 0.00 0.00 38 1016.9
20260502033244 10 260 4.8 8.0 0.00 0.00 0.00 38 1016.9
20260502032736 10 260 4.8 8.0 0.00 0.00 0.00 38 1016.9
20260502032233 11 260 6.4 8.0 0.00 0.00 0.00 37 1016.9
20260502032216 11 260 4.8 9.7 0.00 0.00 0.00 37 1016.9
20260502031821 11 260 6.4 8.0 0.00 0.00 0.00 37 1016.9
20260502030710 11 260 4.8 9.7 0.00 0.00 0.00 37 1016.8
20260502030202 11 260 4.8 9.7 0.00 0.00 0.00 36 1016.8
20260502025659 11 260 6.4 9.7 0.00 0.00 0.00 35 1016.8
20260502025152 11 260 4.8 9.7 0.00 0.00 0.00 35 1016.8
20260502024649 11 260 4.8 8.0 0.00 0.00 0.00 35 1016.8
20260502024145 12 260 4.8 8.0 0.00 0.00 0.00 34 1016.8
20260502023640 12 259 4.8 8.0 0.00 0.00 0.00 34 1016.8
20260502023137 12 259 4.8 8.0 0.00 0.00 0.00 33 1016.8
20260502022634 12 260 6.4 8.0 0.00 0.00 0.00 32 1016.7
20260502022134 13 260 6.4 9.7 0.00 0.00 0.00 32 1016.7
20260502021626 13 260 6.4 9.7 0.00 0.00 0.00 31 1016.7
20260502021125 13 260 6.4 12.9 0.00 0.00 0.00 30 1016.8
20260502020623 14 260 4.8 9.7 0.00 0.00 0.00 29 1016.8
20260502020113 15 0 4.8 8.0 0.00 0.00 0.00 28 1016.8
20260502015610 15 261 4.8 8.0 0.00 0.00 0.00 27 1016.8
20260502015058 15 261 4.8 11.3 0.00 0.00 0.00 27 1016.8
20260502014554 16 261 4.8 11.3 0.00 0.00 0.00 27 1016.8
20260502014051 16 261 6.4 12.9 0.00 0.00 0.00 26 1016.8
20260502013545 16 261 6.4 12.9 0.00 0.00 0.00 26 1016.7
20260502013039 16 261 8.0 12.9 0.00 0.00 0.00 26 1016.8
20260502012537 17 261 8.0 12.9 0.00 0.00 0.00 26 1016.7
20260502012035 17 261 8.0 12.9 0.00 0.00 0.00 26 1016.8
20260502011536 17 261 9.7 12.9 0.00 0.00 0.00 25 1016.8
20260502011038 17 261 9.7 14.5 0.00 0.00 0.00 24 1016.8
20260502011032 17 261 11.3 16.1 0.00 0.00 0.00 24 1016.9
20260502010015 18 261 8.0 16.1 0.00 0.00 0.00 24 1016.9
20260502005509 18 261 8.0 12.9 0.00 0.00 0.00 24 1016.9
20260502005004 18 261 9.7 14.5 0.00 0.00 0.00 24 1017.0
20260502004459 18 261 9.7 16.1 0.00 0.00 0.00 23 1017.0
20260502004454 18 261 8.0 16.1 0.00 0.00 0.00 23 1017.0
20260502003450 18 261 6.4 9.7 0.00 0.00 0.00 23 1017.0
20260502002950 18 261 4.8 9.7 0.00 0.00 0.00 22 1017.0
20260502002449 18 261 4.8 14.5 0.00 0.00 0.00 22 1017.1
20260502002444 18 261 6.4 14.5 0.00 0.00 0.00 22 1017.1
20260502001435 18 261 8.0 16.1 0.00 0.00 0.00 22 1017.1
20260502000925 18 261 8.0 16.1 0.00 0.00 0.00 23 1017.3
20260502000916 18 261 9.7 17.7 0.00 0.00 0.00 22 1017.1
20260501235904 18 261 11.3 17.7 0.00 0.00 0.00 22 1017.3
20260501235354 19 261 9.7 16.1 0.00 0.00 0.00 22 1017.0
20260501234843 19 261 6.4 14.5 0.00 0.00 0.00 23 1017.1
20260501234826 19 261 6.4 14.5 0.00 0.00 0.00 23 1017.1
20260501234430 19 261 8.0 14.5 0.00 0.00 0.00 22 1017.1
20260501233315 19 261 3.2 9.7 0.00 0.00 0.00 23 1017.1
20260501232803 19 261 4.8 11.3 0.00 0.00 0.00 22 1017.3
20260501232755 19 261 4.8 9.7 0.00 0.00 0.00 24 1017.3
20260501231743 19 261 9.7 19.3 0.00 0.00 0.00 22 1017.4
20260501231735 19 261 12.9 20.9 0.00 0.00 0.00 22 1017.5
20260501231216 19 261 8.0 16.1 0.00 0.00 0.00 22 1017.4
20260501230821 19 261 9.7 20.9 0.00 0.00 0.00 22 1017.3
20260501230331 19 261 4.8 16.1 0.00 0.00 0.00 24 1017.4
20260501230320 19 261 8.0 16.1 0.00 0.00 0.00 23 1017.4
20260501225204 20 261 4.8 14.5 0.00 0.00 0.00 22 1017.4
20260501225145 19 261 8.0 16.1 0.00 0.00 0.00 23 1017.4
20260501223633 18 261 8.0 16.1 0.00 0.00 0.00 23 1017.4
20260501223124 18 261 8.0 16.1 0.00 0.00 0.00 24 1017.5
20260501222613 18 261 4.8 19.3 0.00 0.00 0.00 24 1017.5
20260501222103 18 261 4.8 19.3 0.00 0.00 0.00 24 1017.4
20260501221553 18 261 4.8 9.7 0.00 0.00 0.00 24 1017.4
20260501221043 18 261 6.4 9.7 0.00 0.00 0.00 23 1017.6
20260501221034 18 261 4.8 9.7 0.00 0.00 0.00 23 1017.7
20260501220033 18 261 6.4 16.1 0.00 0.00 0.00 23 1017.7
20260501215523 18 261 9.7 16.1 0.00 0.00 0.00 23 1017.7
20260501215013 18 261 11.3 20.9 0.00 0.00 0.00 23 1017.8
20260501214509 18 261 8.0 20.9 0.00 0.00 0.00 23 1017.8
20260501213959 18 261 6.4 16.1 0.00 0.00 0.00 25 1017.9
20260501213449 18 261 8.0 16.1 0.00 0.00 0.00 24 1018.0
20260501212939 18 261 9.7 17.7 0.00 0.00 0.00 23 1018.0
20260501212930 18 261 9.7 17.7 0.00 0.00 0.00 25 1018.1
20260501211919 18 261 8.0 17.7 0.00 0.00 0.00 25 1018.1
20260501211409 18 261 4.8 16.1 0.00 0.00 0.00 26 1018.1
20260501210859 17 261 4.8 9.7 0.00 0.00 0.00 26 1018.1
20260501210349 17 261 8.0 14.5 0.00 0.00 0.00 26 1018.1
20260501205839 17 261 9.7 14.5 0.00 0.00 0.00 24 1018.2
20260501205830 17 261 9.7 17.7 0.00 0.00 0.00 25 1018.2
20260501204820 17 261 9.7 25.7 0.00 0.00 0.00 24 1018.3
20260501204310 17 261 6.4 19.3 0.00 0.00 0.00 26 1018.3
20260501203800 17 261 6.4 19.3 0.00 0.00 0.00 25 1018.4
20260501203750 17 261 6.4 19.3 0.00 0.00 0.00 27 1018.6
20260501202740 17 261 6.4 16.1 0.00 0.00 0.00 27 1018.6
20260501202229 17 261 8.0 16.1 0.00 0.00 0.00 25 1018.4
20260501201712 17 261 4.8 14.5 0.00 0.00 0.00 25 1018.4
20260501201201 17 261 6.4 16.1 0.00 0.00 0.00 26 1018.4
20260501200651 17 261 6.4 16.1 0.00 0.00 0.00 24 1018.6
20260501200141 17 261 4.8 12.9 0.00 0.00 0.00 26 1018.6
20260501195629 17 261 4.8 12.9 0.00 0.00 0.00 26 1018.7
20260501195120 17 261 8.0 16.1 0.00 0.00 0.00 24 1018.7
20260501194609 17 261 8.0 16.1 0.00 0.00 0.00 26 1018.7
20260501194600 16 261 8.0 12.9 0.00 0.00 0.00 27 1018.7
20260501193549 16 261 8.0 16.1 0.00 0.00 0.00 26 1018.7
20260501193039 16 261 9.7 17.7 0.00 0.00 0.00 25 1018.8
20260501192530 16 261 9.7 20.9 0.00 0.00 0.00 27 1018.7
20260501192020 16 261 9.7 19.3 0.00 0.00 0.00 26 1018.7
20260501191509 17 261 9.7 17.7 0.00 0.00 0.00 26 1018.7
20260501191501 17 261 6.4 16.1 0.00 0.00 0.00 26 1018.7
20260501190449 17 261 6.4 14.5 0.00 0.00 0.00 26 1018.6
20260501185939 17 261 9.7 14.5 0.00 0.00 0.00 26 1018.7
20260501185429 17 261 9.7 16.1 0.00 0.00 0.00 27 1018.7
20260501184920 17 261 8.0 16.1 0.00 0.00 0.00 27 1018.8
20260501184409 16 261 8.0 12.9 0.00 0.00 0.00 29 1018.8
20260501183852 17 261 8.0 16.1 0.00 0.00 0.00 26 1018.9
20260501183343 17 261 9.7 16.1 0.00 0.00 0.00 28 1018.9
20260501182831 17 261 9.7 17.7 0.00 0.00 0.00 28 1018.9
20260501182323 17 261 9.7 17.7 0.00 0.00 0.00 27 1019.0
20260501181811 16 261 11.3 22.5 0.00 0.00 0.00 29 1019.0
20260501181301 16 261 8.0 22.5 0.00 0.00 0.00 28 1018.9
20260501180749 16 261 6.4 14.5 0.00 0.00 0.00 29 1019.1
20260501180240 16 261 4.8 14.5 0.00 0.00 0.00 29 1019.1
20260501175730 16 261 4.8 11.3 0.00 0.00 0.00 29 1019.2
20260501175220 16 261 6.4 16.1 0.00 0.00 0.00 27 1019.2
20260501174710 16 261 8.0 20.9 0.00 0.00 0.00 29 1019.2
20260501174701 16 261 8.0 20.9 0.00 0.00 0.00 29 1019.3
20260501173649 16 261 8.0 17.7 0.00 0.00 0.00 28 1019.3
20260501173140 16 261 8.0 17.7 0.00 0.00 0.00 27 1019.4
20260501172630 16 261 8.0 17.7 0.00 0.00 0.00 30 1019.3
20260501172119 16 261 9.7 17.7 0.00 0.00 0.00 29 1019.3
20260501172110 16 261 8.0 17.7 0.00 0.00 0.00 30 1019.3
20260501171551 15 261 8.0 17.7 0.00 0.00 0.00 32 1019.3
20260501171156 15 261 8.0 14.5 0.00 0.00 0.00 30 1019.3
20260501170040 15 261 6.4 17.7 0.00 0.00 0.00 29 1019.4
20260501170030 15 261 4.8 17.7 0.00 0.00 0.00 31 1019.3
20260501165020 15 261 9.7 17.7 0.00 0.00 0.00 31 1019.3
20260501164509 15 261 9.7 17.7 0.00 0.00 0.00 31 1019.3
20260501163958 15 261 9.7 17.7 0.00 0.00 0.00 33 1019.3
20260501163447 15 261 9.7 16.1 0.00 0.00 0.00 32 1019.3
20260501162938 14 261 9.7 17.7 0.00 0.00 0.00 33 1019.3
20260501162928 14 261 9.7 17.7 0.00 0.00 0.00 32 1019.3
20260501161920 14 261 9.7 17.7 0.00 0.00 0.00 31 1019.2
20260501161411 14 261 8.0 17.7 0.00 0.00 0.00 32 1019.2
20260501160855 13 261 8.0 24.1 0.00 0.00 0.00 31 1019.1
20260501160347 14 261 8.0 24.1 0.00 0.00 0.00 31 1019.1
20260501160342 14 261 8.0 16.1 0.00 0.00 0.00 31 1019.1
20260501155334 14 261 8.0 16.1 0.00 0.00 0.00 32 1019.0
20260501154828 13 261 8.0 16.1 0.00 0.00 0.00 32 1019.0
20260501154317 13 261 6.4 12.9 0.00 0.00 0.00 32 1019.1
20260501154312 13 261 6.4 12.9 0.00 0.00 0.00 30 1019.0
20260501153302 13 261 4.8 11.3 0.00 0.00 0.00 31 1019.1
20260501152754 13 261 3.2 8.0 0.00 0.00 0.00 34 1019.1